Regional Weather Roundup
Issued by NWS

Home | Current Version | Previous Version | Text Only | Print | Product List | Glossary Off
Versions: 1 2 3 4 5 6 7 8 9 10 11 12 13 14 15 16 17 18 19 20 21 22 23 24 25 26 27 28 29 30 31 32 33 34 35 36 37 38 39 40 41 42 43 44 45 46 47 48 49 50

189
ASUS43 KLOT 240908
RWRIL

ILLINOIS REGIONAL WEATHER ROUNDUP
NATIONAL WEATHER SERVICE CHICAGO/ROMEOVILLE IL
400 AM CDT SUN JUL 24 2016

NOTE: "FAIR" INDICATES FEW OR NO CLOUDS BELOW 12,000 FEET WITH NO
SIGNIFICANT WEATHER AND/OR OBSTRUCTIONS TO VISIBILITY.

* THESE STATIONS ARE NOT UNDER NWS QUALITY CONTROL. THEY ALSO MAY NOT
  REPORT WEATHER SUCH AS PRECIPITATION OR FOG.

ILZ001-002-007-009-015-016-024-241000-
NORTHWEST ILLINOIS

CITY           SKY/WX    TMP DP  RH WIND       PRES   REMARKS
MOLINE         CLOUDY    82  75  79 S12       29.86F HX  89
STERLING*      PTCLDY    75  74  96 VRB5      29.88F
SAVANNA*       PTCLDY    74  72  95 S7        29.87S
$$

ILZ003-004-008-010-011-017-018-241000-
NORTH CENTRAL ILLINOIS

CITY           SKY/WX    TMP DP  RH WIND       PRES   REMARKS
ROCKFORD       CLOUDY    72  68  87 CALM      29.90F
FREEPORT*      CLEAR     71  70  96 S10       29.90F
ROCHELLE*      CLEAR     71  71  97 S9        29.90F
DE KALB*       CLOUDY    70  69  95 S8        29.92S
$$

ILZ005-006-012>014-019>023-241000-
NORTHEAST ILLINOIS

CITY           SKY/WX    TMP DP  RH WIND       PRES   REMARKS
CHICAGO-OHARE  CLOUDY    71  70  96 S9        29.90F
CHICAGO-MIDWAY MOCLDY    73  70  90 S6        29.90F
AURORA         CLOUDY    71  69  93 S9        29.91F
LANSING*       CLOUDY    70  69  95 S5        29.93F
JOLIET*        PTCLDY    72  71  96 S5        29.92F
WAUKEGAN       CLOUDY    72  69  90 S10       29.88F
DUPAGE AIRPORT PTCLDY    71  68  90 S9        29.91F
WHEELING       CLOUDY    72  70  93 S7        29.91F
MORRIS*        MOCLDY    71  70  96 CALM      29.92S
ROMEOVILLE*    PTCLDY    70  68  92 S8        29.92F
NORTHERLY ISL    N/A     72  68  87 SW7         N/A
$$

LMZ740>746-241000-
SOUTHERN LAKE MICHIGAN

STATION/POSITION SKY/WX   TEMP    WIND        PRES    VSBY  WAVE
                          AIR SEA DIR/SP/G                  HT/PER
                          (F)     (DEG/KT/KT) (MB)    (MI)  (FT/S)
SOUTHERN BUOY              72 72  140/ 16/ 19 1011.2F         1/ 3
WILMETTE HARBOR            69 68  200/  8/ 10   N/A           1/ 3
HARRISON CRIB              74     190/ 14/ 15   N/A
BURNHAM HARBOR             72     210/  4/  9   N/A
CALUMET HARBOR             71     200/  6/  8 1013.0F
BURNS HARBOR               74     180/  6/ 11 1013.9F
MICHIGAN CITY              71     110/  7/  9   N/A
MICHIGAN CITY 6N           73 73  140/ 10/ 14   N/A           2/ 4
ST. JOSEPH                 72 74  110/ 14/ 17 1012.6F         2/ 4
$$

ILZ025>027-034>036-040-047-049-050-058-095>099-241000-
WEST-CENTRAL ILLINOIS

CITY           SKY/WX    TMP DP  RH WIND       PRES   REMARKS
QUINCY         PTCLDY    79  75  87 S7        29.90S HX  83
GALESBURG*     CLOUDY    78  75  90 S5        29.90S HX  80
MACOMB*        CLEAR     77  76  94 S8        29.92F
JACKSONVILLE*  CLEAR     78  75  89 S5        29.91F HX  81
PITTSFIELD*    PTCLDY    79  76  91 S3        29.92F HX  83
$$

ILZ028>032-037-038-041>044-048-051>054-059>061-241000-
CENTRAL ILLINOIS

CITY           SKY/WX    TMP DP  RH WIND       PRES   REMARKS
PONTIAC        CLOUDY    74  74 100 SE6       29.93F
BLOOMINGTON    PTCLDY    76  74  93 S7        29.95S FOG
DECATUR        CLOUDY    78  74  87 S5        29.94F HX  81
PEORIA         CLEAR     79  77  94 S8        29.91F HX  83
LACON*         CLEAR     78  75  91 S5        29.90F
LINCOLN*       CLEAR     77  76  99 CALM      29.93S FOG
SPRINGFIELD    PTCLDY    80  75  84 S5        29.92F HX  85
TAYLORVILLE    PTCLDY    76  75  97 NW3       29.94S FOG
$$

ILZ033-039-045-046-055>057-062-063-241000-
EAST-CENTRAL ILLINOIS

CITY           SKY/WX    TMP DP  RH WIND       PRES   REMARKS
CHAMPAIGN      CLOUDY    74  73  97 SE5       29.96S FOG
MATTOON        PTCLDY    75  73  93 SE3       29.95S FOG
PARIS*           N/A     74  74 100 CALM      29.97F FOG
$$

ILZ079-100>102-241000-
SOUTHWEST ILLINOIS

CITY           SKY/WX    TMP DP  RH WIND       PRES   REMARKS
ALTON          MOCLDY    74  73  97 SE3       29.93S FOG
BELLEVILLE     CLOUDY    76  76 100 CALM      29.92S FOG
CAHOKIA*       PTCLDY    77  73  87 CALM      29.93R
SPARTA*        PTCLDY    75  74  98 CALM      29.94F FOG
$$

ILZ064>066-069>071-074>076-080>082-084>086-088>090-092>094-241000-
SOUTH-CENTRAL ILLINOIS

CITY           SKY/WX    TMP DP  RH WIND       PRES   REMARKS
CARBONDALE     CLEAR     76  74  93 CALM      29.93S FOG
CAIRO*         CLEAR     76  76  99 CALM      29.94S
EFFINGHAM*     CLEAR     74  74 100 CALM      29.96S FOG
MARION         CLEAR     77  75  94 CALM      29.95S
MT. VERNON     CLEAR     73  68  83 CALM      29.95S
CENTRALIA*     PTCLDY    75  75 100 CALM      29.94S FOG
SALEM*         CLOUDY    78  75  93 SE3       29.94F FOG
METROPOLIS*    CLEAR     74  73  97 CALM      29.96R FOG
$$

ILZ067-068-072-073-078-083-087-091-241000-
SOUTHEAST ILLINOIS

CITY           SKY/WX    TMP DP  RH WIND       PRES   REMARKS
LAWRENCEVILLE  CLEAR     76  76 100 E3        29.96S FOG
FLORA*         MOCLDY    74  73  97 SE3       29.94F FOG
FAIRFIELD*     CLEAR     75  75  99 CALM      29.93S FOG
HARRISBURG*    CLEAR     75  75  98 CALM      29.95S FOG
ROBINSON*      CLEAR     72  72 100 CALM      29.96S FOG
CARMI*         FOG       74  74 100 CALM      29.94S VSB 1/2
$$

ABBREVIATIONS USED IN REMARKS
   TC - TEMPERATURE IN CELSIUS
  WCI - WIND CHILL INDEX
   HX - HEAT INDEX
  VSB - VISIBILITY
$$





USA.gov is the U.S. government's official web portal to all federal, state and local government web resources and services.